Date String (YYYY-MM-DD hh:mm:ss) UTC,Instrument flags,Ambient pressure (hPa),Sample flow (lpm),Bypass flow (lpm),Sample temperature (°C),Ambient temperature (°C),ASC tube jacket temperature (°C),LED temperature (°C),Box temperature (°C),Sample RH (%),Span deviation,Mass concentration (μg/m³),Mass concentration (μg/m³),Mass concentration (μg/m³)
DateTimeUTC,F1_M11,P_M11,Q1_M11,Q2_M11,T1_M11,T2_M11,T3_M11,T4_M11,T5_M11,U1_M11,ZSPAN_M11,X0_M11,X2_M11,X1_M11
2021-08-29 14:00:00,,0833.4,5.01,0.00,30.1,29.1,00.0,39.1,31.9,27.3,0002.2,0019.16,0011.91,0010.79
2021-08-29 14:01:00,,0833.5,4.98,0.00,30.1,29.1,00.0,39.1,31.9,27.3,0002.4,0018.73,0011.96,0010.79
2021-08-29 14:02:00,,0833.4,5.00,0.00,30.1,29.1,00.0,39.1,31.9,27.4,0002.3,0018.83,0011.94,0010.80
2021-08-29 14:03:00,,0833.4,5.00,0.00,30.1,29.2,00.0,39.2,31.9,27.4,0002.4,0019.63,0011.95,0010.81
2021-08-29 14:04:00,,0833.5,5.00,0.00,30.1,29.2,00.0,39.2,32.0,27.2,0002.6,0019.85,0011.93,0010.79
2021-08-29 14:05:00,,0833.4,4.99,0.00,30.2,29.2,00.0,39.2,32.0,27.3,0002.5,0019.83,0011.92,0010.78
2021-08-29 14:06:00,,0833.4,4.99,0.00,30.2,29.2,00.0,39.2,32.0,27.3,0002.4,0019.54,0011.91,0010.77
2021-08-29 14:07:00,,0833.5,5.01,0.00,30.2,29.3,00.0,39.2,32.0,27.3,0002.4,0019.83,0011.96,0010.78
2021-08-29 14:08:00,,0833.5,5.00,0.00,30.2,29.3,00.0,39.2,32.0,27.3,0002.5,0020.39,0011.98,0010.78
2021-08-29 14:09:00,,0833.4,4.99,0.00,30.2,29.3,00.0,39.3,32.0,27.4,0002.4,0020.37,0011.98,0010.77
2021-08-29 14:10:00,,0833.4,5.00,0.00,30.2,29.3,00.0,39.3,32.0,27.4,0002.4,0020.39,0012.02,0010.78
2021-08-29 14:11:00,,0833.5,5.00,0.00,30.2,29.3,00.0,39.3,32.0,27.3,0002.4,0021.26,0012.02,0010.77
2021-08-29 14:12:00,,0833.5,4.99,0.00,30.2,29.3,00.0,39.3,32.0,27.2,0002.3,0022.02,0012.01,0010.77
2021-08-29 14:13:00,,0833.4,5.01,0.00,30.3,29.4,00.0,39.3,32.1,27.2,0002.3,0021.35,0012.00,0010.77
2021-08-29 14:14:00,,0833.5,4.99,0.00,30.3,29.4,00.0,39.3,32.1,27.1,0002.3,0020.72,0011.98,0010.77
2021-08-29 14:15:00,,0833.4,5.00,0.00,30.3,29.4,00.0,39.3,32.1,27.0,0002.2,0020.98,0012.04,0010.79
2021-08-29 14:16:00,,0833.4,5.00,0.00,30.3,29.4,00.0,39.4,32.1,26.9,0002.1,0020.86,0012.02,0010.80
2021-08-29 14:17:00,,0833.4,5.00,0.00,30.3,29.4,00.0,39.4,32.1,26.8,0002.2,0020.65,0011.99,0010.80
2021-08-29 14:18:00,,0833.4,4.99,0.00,30.3,29.5,00.0,39.4,32.1,27.0,0002.4,0020.31,0011.96,0010.80
2021-08-29 14:19:00,,0833.4,5.00,0.00,30.3,29.5,00.0,39.4,32.1,27.0,0002.5,0020.30,0011.91,0010.80
2021-08-29 14:20:00,,0833.4,5.00,0.00,30.4,29.5,00.0,39.4,32.1,26.9,0002.5,0020.76,0011.92,0010.80
2021-08-29 14:21:00,,0833.3,5.01,0.00,30.4,29.5,00.0,39.4,32.1,27.1,0002.5,0021.92,0011.92,0010.80
2021-08-29 14:22:00,,0833.3,4.99,0.00,30.4,29.5,00.0,39.4,32.1,27.0,0002.5,0021.57,0011.93,0010.82
2021-08-29 14:23:00,,0833.3,5.00,0.00,30.4,29.5,00.0,39.5,32.1,27.0,0002.7,0020.54,0011.94,0010.82
2021-08-29 14:24:00,,0833.3,5.01,0.00,30.4,29.6,00.0,39.5,32.1,27.1,0002.8,0021.55,0011.99,0010.83
2021-08-29 14:25:00,,0833.2,5.00,0.00,30.4,29.6,00.0,39.5,32.2,27.0,0002.8,0022.71,0011.99,0010.83
2021-08-29 14:26:00,,0833.2,5.00,0.00,30.4,29.6,00.0,39.5,32.2,27.0,0002.8,0022.09,0011.94,0010.81
2021-08-29 14:27:00,,0833.2,5.00,0.00,30.4,29.6,00.0,39.5,32.2,26.9,0002.6,0022.48,0011.94,0010.80
2021-08-29 14:28:00,,0833.2,4.99,0.00,30.4,29.6,00.0,39.5,32.2,27.0,0002.6,0024.20,0011.98,0010.80
2021-08-29 14:29:00,,0833.2,4.99,0.00,30.4,29.6,00.0,39.5,32.2,26.9,0002.3,0025.69,0012.02,0010.80
2021-08-29 14:30:00,,0833.1,5.01,0.00,30.4,28.6,00.0,39.5,31.9,26.9,0002.0,0025.98,0012.02,0010.78
2021-08-29 14:31:00,,0833.2,5.00,0.00,30.3,26.9,00.0,39.5,31.5,27.3,0001.9,0025.34,0012.02,0010.78
2021-08-29 14:32:00,,0833.2,5.00,0.00,30.2,26.7,00.0,39.4,31.4,27.2,0001.9,0024.41,0012.07,0010.79
2021-08-29 14:33:00,,0833.2,4.99,0.00,30.0,27.0,00.0,39.4,31.4,27.3,0001.8,0024.17,0012.09,0010.79
2021-08-29 14:34:00,,0833.2,4.99,0.00,30.0,27.4,00.0,39.3,31.5,27.5,0001.5,0024.46,0012.09,0010.79
2021-08-29 14:35:00,,0833.2,5.01,0.00,30.0,27.8,00.0,39.3,31.5,27.5,0001.5,0023.41,0012.06,0010.77
2021-08-29 14:36:00,,0833.2,5.00,0.00,30.0,28.0,00.0,39.3,31.6,27.6,0001.3,0022.23,0012.09,0010.78
2021-08-29 14:37:00,,0833.2,4.99,0.00,30.0,28.3,00.0,39.3,31.7,27.6,0001.4,0022.42,0012.11,0010.78
2021-08-29 14:38:00,,0833.2,5.02,0.00,30.0,28.4,00.0,39.2,31.7,27.5,0001.5,0022.10,0012.11,0010.78
2021-08-29 14:39:00,,0833.2,4.99,0.00,30.0,28.6,00.0,39.2,31.7,27.5,0001.3,0021.19,0012.08,0010.77
2021-08-29 14:40:00,,0833.1,5.00,0.00,30.0,28.7,00.0,39.2,31.8,27.6,0001.6,0019.83,0012.05,0010.77
2021-08-29 14:41:00,,0833.2,5.00,0.00,30.0,28.8,00.0,39.2,31.8,27.6,0001.8,0019.06,0012.04,0010.77
2021-08-29 14:42:00,,0833.1,4.99,0.00,30.0,28.9,00.0,39.2,31.8,27.5,0001.9,0019.28,0012.03,0010.76
2021-08-29 14:43:00,,0833.2,4.99,0.00,30.1,28.9,00.0,39.2,31.8,27.4,0001.8,0019.02,0011.96,0010.76
2021-08-29 14:44:00,,0833.2,5.00,0.00,30.1,29.0,00.0,39.2,31.9,27.5,0001.9,0018.98,0011.97,0010.73
2021-08-29 14:45:00,,0833.2,5.00,0.00,30.1,29.1,00.0,39.2,31.9,27.2,0001.9,0018.79,0011.97,0010.74
2021-08-29 14:46:00,,0833.1,4.99,0.00,30.1,29.1,00.0,39.2,31.9,27.4,0002.0,0018.63,0011.96,0010.73
2021-08-29 14:47:00,,0833.2,5.00,0.00,30.1,29.2,00.0,39.2,32.0,27.5,0002.3,0018.56,0011.92,0010.73
2021-08-29 14:48:00,,0833.1,5.00,0.00,30.2,29.2,00.0,39.3,32.0,27.5,0002.4,0018.74,0011.93,0010.74
2021-08-29 14:49:00,,0833.1,5.01,0.00,30.2,29.3,00.0,39.3,32.0,27.4,0002.6,0019.10,0011.95,0010.74
2021-08-29 14:50:00,,0833.1,4.99,0.00,30.2,29.3,00.0,39.3,32.0,27.3,0002.7,0018.49,0011.92,0010.72
2021-08-29 14:51:00,,0833.1,4.99,0.00,30.2,29.3,00.0,39.3,32.1,27.1,0002.6,0018.78,0011.94,0010.69
2021-08-29 14:52:00,,0833.1,4.99,0.00,30.3,29.4,00.0,39.3,32.1,27.2,0002.7,0019.03,0011.97,0010.72
2021-08-29 14:53:00,,0833.1,5.00,0.00,30.3,29.4,00.0,39.3,32.1,26.8,0002.7,0018.96,0012.03,0010.78
2021-08-29 14:54:00,,0833.1,5.01,0.00,30.3,29.4,00.0,39.3,32.1,26.9,0002.7,0019.27,0012.10,0010.81
2021-08-29 14:55:00,,0833.1,5.00,0.00,30.3,29.4,00.0,39.4,32.1,27.1,0002.7,0020.83,0012.13,0010.84
2021-08-29 14:56:00,,0833.1,5.00,0.00,30.3,29.5,00.0,39.4,32.1,27.4,0002.5,0021.78,0012.13,0010.87
2021-08-29 14:57:00,,0833.1,4.99,0.00,30.3,29.5,00.0,39.4,32.1,27.3,0002.3,0022.35,0012.13,0010.89
2021-08-29 14:58:00,,0833.1,4.99,0.00,30.4,29.5,00.0,39.4,32.1,27.0,0002.1,0022.79,0012.16,0010.91
2021-08-29 14:59:00,,0833.0,5.00,0.00,30.4,29.5,00.0,39.4,32.2,26.8,0001.9,0023.16,0012.21,0010.95
